Weather History for Jackson, MN

Change the Weather History Date:

Wednesday, January 16, 2013

  Actual Average Record
Temperature  
Mean Temperature 24 °F -  
Max Temperature 37 °F 22 °F 37 °F (1999)
Min Temperature 10 °F 6 °F -18 °F (2009)
Degree Days  
Heating Degree Days 42    
Moisture  
Dew Point 22 °F    
Average Humidity 79    
Maximum Humidity 93    
Minimum Humidity 67    
Precipitation  
Precipitation 0.00 in - - ()
Sea Level Pressure  
Sea Level Pressure 29.90 in    
Wind  
Wind Speed 16 mph (West)    
Max Wind Speed 21 mph    
Max Gust Speed 29 mph    
Visibility 10 miles    
Events      
Averages and records for this station are not official NWS values.
T = Trace of Precipitation, MM = Missing Value Source: NWS Daily Summary

Daily Weather History Graph

Daily Weather History Graph

Search for Another Location

Airport:

Trip Planner

Search our weather history database for the weather conditions in past years. The results will help you decide how hot, cold, wet, or windy it might be!

Date:

Astronomy

Jan. 16, 2013 Rise Set
Actual Time 7:49 AM CST 5:10 PM CST
Civil Twilight 7:17 AM CST 5:42 PM CST
Nautical Twilight 6:42 AM CST 6:17 PM CST
Astronomical Twilight 6:08 AM CST 6:51 PM CST
Moon 10:14 AM CST (1/16) 11:15 PM CST (1/16)
Length of Visible Light 10h 24m
Length of Day
9h 20m
Waxing Crescent, 28% of the Moon is Illuminated
Jan 16
Waxing Crescent
Jan 18
First Quarter
Jan 26
Full
Feb 3
Last Quarter
Feb 10
New

Hourly Weather History & Observations

Time (CST) Temp. Windchill Dew Point Humidity Pressure Visibility Wind Dir Wind Speed Gust Speed Precip Events Conditions
12:13 AM 24.8 °F 11.1 °F 17.6 °F 74% 29.83 in 10.0 mi SSW 18.4 mph 27.6 mph N/A   Clear
12:33 AM 24.8 °F 10.7 °F 15.8 °F 69% 29.82 in 10.0 mi SSW 19.6 mph 25.3 mph N/A   Clear
12:53 AM 24.8 °F 10.3 °F 15.8 °F 69% 29.81 in 10.0 mi SSW 20.7 mph 25.3 mph N/A   Clear
1:13 AM 24.8 °F 11.9 °F 15.8 °F 69% 29.80 in 10.0 mi SSW 16.1 mph - N/A   Mostly Cloudy
1:33 AM 24.8 °F 11.9 °F 15.8 °F 69% 29.79 in 10.0 mi SW 16.1 mph 24.2 mph N/A   Overcast
1:53 AM 24.8 °F 11.5 °F 17.6 °F 74% 29.79 in 10.0 mi SW 17.3 mph 24.2 mph N/A   Overcast
2:32 AM 26.6 °F 13.8 °F 17.6 °F 69% 29.77 in 10.0 mi SW 17.3 mph 25.3 mph N/A   Overcast
3:13 AM 26.6 °F 13.8 °F 17.6 °F 69% 29.76 in 10.0 mi SW 17.3 mph 23.0 mph N/A   Overcast
3:33 AM 26.6 °F 14.3 °F 17.6 °F 69% 29.76 in 7.0 mi SW 16.1 mph 23.0 mph N/A   Overcast
3:53 AM 26.6 °F 13.8 °F 19.4 °F 74% 29.75 in 10.0 mi SW 17.3 mph 21.9 mph N/A   Overcast
4:12 AM 26.6 °F 13.8 °F 19.4 °F 74% 29.74 in 10.0 mi SW 17.3 mph 24.2 mph N/A   Overcast
4:33 AM 26.6 °F 14.3 °F 19.4 °F 74% 29.74 in 10.0 mi SW 16.1 mph - N/A   Overcast
4:53 AM 28.4 °F 16.6 °F 21.2 °F 74% 29.73 in 10.0 mi SW 16.1 mph 20.7 mph N/A   Overcast
5:13 AM 28.4 °F 17.0 °F 21.2 °F 74% 29.73 in 10.0 mi SW 15.0 mph - N/A   Overcast
5:33 AM 28.4 °F 16.2 °F 23.0 °F 80% 29.72 in 10.0 mi SW 17.3 mph 23.0 mph N/A   Overcast
5:53 AM 28.4 °F 17.0 °F 23.0 °F 80% 29.72 in 10.0 mi WSW 15.0 mph - N/A   Overcast
6:33 AM 30.2 °F 20.2 °F 26.6 °F 86% 29.73 in 10.0 mi WSW 12.7 mph 16.1 mph N/A   Overcast
6:53 AM 30.2 °F 21.3 °F 26.6 °F 86% 29.75 in 10.0 mi West 10.4 mph - N/A   Overcast
7:12 AM 30.2 °F 21.3 °F 26.6 °F 86% 29.75 in 10.0 mi WSW 10.4 mph - N/A   Overcast
7:33 AM 32.0 °F 23.6 °F 28.4 °F 87% 29.75 in 10.0 mi WSW 10.4 mph - N/A   Overcast
7:53 AM 32.0 °F 21.6 °F 28.4 °F 87% 29.75 in 10.0 mi West 15.0 mph 18.4 mph N/A   Overcast
8:12 AM 32.0 °F 23.0 °F 28.4 °F 87% 29.77 in 10.0 mi West 11.5 mph - N/A   Overcast
8:33 AM 32.0 °F 22.5 °F 28.4 °F 87% 29.77 in 10.0 mi WSW 12.7 mph - N/A   Scattered Clouds
8:53 AM 32.0 °F 23.0 °F 28.4 °F 87% 29.79 in 10.0 mi West 11.5 mph - N/A   Clear
9:12 AM 32.0 °F 22.1 °F 28.4 °F 87% 29.80 in 10.0 mi West 13.8 mph 17.3 mph N/A   Clear
9:33 AM 32.0 °F 22.1 °F 28.4 °F 87% 29.80 in 10.0 mi West 13.8 mph - N/A   Mostly Cloudy
9:53 AM 33.8 °F 24.8 °F 30.2 °F 87% 29.80 in 10.0 mi West 12.7 mph - N/A   Mostly Cloudy
10:12 AM 35.6 °F 28.0 °F 30.2 °F 81% 29.80 in 10.0 mi West 10.4 mph - N/A   Scattered Clouds
10:33 AM 35.6 °F 27.1 °F 30.2 °F 81% 29.81 in 10.0 mi West 12.7 mph 18.4 mph N/A   Clear
10:52 AM 37.4 °F 28.5 °F 30.2 °F 75% 29.81 in 10.0 mi West 15.0 mph - N/A   Mostly Cloudy
11:13 AM 37.4 °F 29.3 °F 32.0 °F 81% 29.81 in 10.0 mi West 12.7 mph 21.9 mph N/A   Overcast
11:33 AM 35.6 °F 25.5 °F 32.0 °F 87% 29.82 in 10.0 mi West 17.3 mph - N/A   Overcast
11:52 AM 37.4 °F 28.5 °F 32.0 °F 81% 29.82 in 10.0 mi West 15.0 mph 21.9 mph N/A   Overcast
12:13 PM 37.4 °F 28.9 °F 32.0 °F 81% 29.80 in 10.0 mi West 13.8 mph 18.4 mph N/A   Overcast
12:33 PM 37.4 °F 28.5 °F 32.0 °F 81% 29.81 in 10.0 mi West 15.0 mph - N/A   Overcast
12:52 PM 37.4 °F 28.9 °F 32.0 °F 81% 29.80 in 10.0 mi West 13.8 mph 17.3 mph N/A   Overcast
1:13 PM 37.4 °F 28.9 °F 32.0 °F 81% 29.80 in 10.0 mi West 13.8 mph - N/A   Overcast
1:33 PM 37.4 °F 29.8 °F 32.0 °F 81% 29.81 in 10.0 mi West 11.5 mph 17.3 mph N/A   Overcast
2:13 PM 37.4 °F 28.9 °F 32.0 °F 81% 29.82 in 10.0 mi West 13.8 mph - N/A   Overcast
2:33 PM 37.4 °F 28.9 °F 32.0 °F 81% 29.83 in 10.0 mi West 13.8 mph 19.6 mph N/A   Overcast
2:52 PM 37.4 °F 27.5 °F 32.0 °F 81% 29.84 in 10.0 mi WNW 18.4 mph - N/A   Overcast
3:13 PM 37.4 °F 28.2 °F 32.0 °F 81% 29.87 in 10.0 mi WNW 16.1 mph 25.3 mph N/A   Overcast
3:33 PM 35.6 °F 25.5 °F 32.0 °F 87% 29.89 in 10.0 mi NNW 17.3 mph 28.8 mph N/A   Overcast
3:52 PM 32.0 °F 21.6 °F 30.2 °F 93% 29.92 in 5.0 mi NNW 15.0 mph 25.3 mph N/A   Overcast
4:13 PM 32.0 °F 21.6 °F 28.4 °F 87% 29.94 in 10.0 mi NNW 15.0 mph 24.2 mph N/A   Overcast
4:33 PM 30.2 °F 18.1 °F 26.6 °F 86% 29.98 in 10.0 mi NNW 18.4 mph 26.5 mph N/A   Overcast
4:52 PM 30.2 °F 17.4 °F 26.6 °F 86% 30.00 in 10.0 mi NNW 20.7 mph 28.8 mph N/A   Overcast
5:13 PM 30.2 °F 19.3 °F 26.6 °F 86% 30.01 in 10.0 mi NNW 15.0 mph 19.6 mph N/A   Overcast
5:52 PM 28.4 °F 18.5 °F 23.0 °F 80% 30.03 in 10.0 mi NNW 11.5 mph 17.3 mph N/A   Overcast
6:13 PM 26.6 °F 12.7 °F 21.2 °F 80% 30.05 in 10.0 mi NNW 20.7 mph 24.2 mph N/A   Scattered Clouds
6:33 PM 24.8 °F 11.1 °F 19.4 °F 80% 30.07 in 10.0 mi NNW 18.4 mph 24.2 mph N/A   Clear
6:52 PM 23.0 °F 13.1 °F 19.4 °F 86% 30.09 in 10.0 mi NNW 9.2 mph 17.3 mph N/A   Scattered Clouds
7:13 PM 23.0 °F 8.3 °F 17.6 °F 80% 30.10 in 10.0 mi NW 19.6 mph 23.0 mph N/A   Scattered Clouds
7:33 PM 21.2 °F 5.6 °F 15.8 °F 80% 30.13 in 10.0 mi NNW 20.7 mph 24.2 mph N/A   Clear
7:53 PM 19.4 °F 6.6 °F 14.0 °F 80% 30.13 in 10.0 mi NNW 12.7 mph 24.2 mph N/A   Clear
8:13 PM 17.6 °F 3.2 °F 12.2 °F 79% 30.14 in 10.0 mi NNW 15.0 mph 18.4 mph N/A   Clear
8:33 PM 17.6 °F 1.7 °F 10.4 °F 73% 30.14 in 10.0 mi NNW 18.4 mph 21.9 mph N/A   Clear
8:53 PM 17.6 °F 5.0 °F 8.6 °F 68% 30.16 in 10.0 mi NNW 11.5 mph 19.6 mph N/A   Clear
9:13 PM 15.8 °F 1.4 °F 8.6 °F 73% 30.15 in 10.0 mi NNW 13.8 mph 23.0 mph N/A   Clear
9:33 PM 14.0 °F -0.8 °F 5.0 °F 67% 30.17 in 10.0 mi NNW 13.8 mph 25.3 mph N/A   Clear
9:53 PM 14.0 °F 2.0 °F 5.0 °F 67% 30.18 in 10.0 mi NW 9.2 mph 17.3 mph N/A   Clear
10:13 PM 12.2 °F 0.7 °F 5.0 °F 73% 30.19 in 10.0 mi WNW 8.1 mph - N/A   Clear
10:33 PM 12.2 °F -1.8 °F 3.2 °F 67% 30.20 in 10.0 mi NW 11.5 mph - N/A   Clear
10:53 PM 12.2 °F -1.0 °F 3.2 °F 67% 30.21 in 10.0 mi WNW 10.4 mph 20.7 mph N/A   Clear
11:13 PM 10.4 °F -3.3 °F 3.2 °F 73% 30.22 in 10.0 mi WNW 10.4 mph - N/A   Clear
11:33 PM 10.4 °F -4.8 °F 1.4 °F 67% 30.22 in 10.0 mi NW 12.7 mph - N/A   Clear
11:53 PM 10.4 °F -5.4 °F 1.4 °F 67% 30.23 in 10.0 mi NW 13.8 mph - N/A   Clear